sat.trackr.live / text

‹ back to catalog

STARLINK-4137

NORAD 53031 · 2022-076AX

PAYLOAD ACTIVE UNKNOWN

§ Identity

Operator
Country
US
Launch date
2022-07-07
Launch site
AFETR
Launch vehicle
Mass (kg)
RCS (m²)

Purposes: comms

External: N2YO · Heavens-Above · Gunter

§ Orbital elements

Epoch: 2026-05-25T03:05:09.724128Z

Period
95.44 min
Inclination
53.2133°
Eccentricity
0.0001291
Mean motion
15.08839286 rev/d
Perigee alt
538.9 km
Apogee alt
540.6 km
Semi-major
6,917.9 km
B*
4.3824e-5
RAAN
90.9735°
Arg perigee
83.5692°
Mean anomaly
276.5447°
Rev number
21,466

§ Raw data

STARLINK-41371 53031U 22076AX  26145.12858477  .00000410  00000+0  43824-4 0  99982 53031  53.2133  90.9735 0001291  83.5692 276.5447 15.08839286214664

JSON: /api/v1/satellites/53031 · /tle

For live sub-satellite position, see the globe view (requires WebGL).

§ Visibility from observer

Set your observer location to see the next 7 days of passes ≥ 10°. The values pass through the URL so the page stays shareable.

No JS? Fill the form by hand. The geolocation button needs JavaScript.